Ocean City, MD

3:46 PM EDT on September 19, 2017 (GMT -0400)
Ocean City Municipal

Weather History for KOXB - August, 2013

Change the Weather History Date:

Sunday, August 18, 2013

  Actual Average (KSBY) Record (KSBY)
Temperature  
Mean Temperature 68 °F -  
Max Temperature 73 °F 83 °F 98 °F (1914)
Min Temperature 64 °F 66 °F 49 °F (1941)
Cooling Degree Days 4    
Growing Degree Days 18 (Base 50)    
Moisture  
Dew Point 66 °F    
Average Humidity 91    
Maximum Humidity 100    
Minimum Humidity 78    
Precipitation  
Precipitation 0.28 in - - ()
Sea Level Pressure  
Sea Level Pressure 30.16 in    
Wind  
Wind Speed 10 mph (NE)    
Max Wind Speed 16 mph    
Max Gust Speed 25 mph    
Visibility 5 miles    
Events Rain    
Averages and records for this station are not official NWS values.
T = Trace of Precipitation, MM = Missing Value Source: NWS Daily Summary

Daily Weather History Graph

Daily Weather History Graph

Search for Another Location

Airport or City:

Trip Planner

Search our weather history database for the weather conditions in past years. The results will help you decide how hot, cold, wet, or windy it might be!

Date:

Astronomy

Aug. 18, 2013 Rise Set
Actual Time 6:17 AM EDT 7:49 PM EDT
Civil Twilight 5:49 AM EDT 8:17 PM EDT
Nautical Twilight 5:16 AM EDT 8:51 PM EDT
Astronomical Twilight 4:40 AM EDT 9:26 PM EDT
Moon 5:53 PM EDT (8/18) 3:25 AM EDT (8/18)
Length of Visible Light 14h 27m
Length of Day
13h 32m
Waxing Gibbous, 92% of the Moon is Illuminated
Aug 18
Waxing Gibbous
Aug 20
Full
Aug 28
Last Quarter
Sep 5
New
Sep 12
First Quarter

Hourly Weather History & Observations

Time (EDT) Temp. Dew Point Humidity Pressure Visibility Wind Dir Wind Speed Gust Speed Precip Events Conditions
12:53 AM 72.0 °F 64.9 °F 78% 30.20 in 10.0 mi East 8.1 mph - N/A   Partly Cloudy
1:53 AM 72.0 °F 64.9 °F 78% 30.19 in 10.0 mi East 8.1 mph - N/A   Mostly Cloudy
2:53 AM 72.0 °F 64.9 °F 78% 30.17 in 10.0 mi East 8.1 mph - N/A   Overcast
3:53 AM 72.0 °F 66.0 °F 81% 30.16 in 10.0 mi East 10.4 mph - N/A   Overcast
4:53 AM 73.0 °F 66.0 °F 79% 30.16 in 10.0 mi ENE 6.9 mph - N/A   Overcast
5:36 AM 71.6 °F 66.2 °F 83% 30.16 in 7.0 mi East 9.2 mph - 0.00 in Rain Light Rain
5:53 AM 71.1 °F 68.0 °F 90% 30.16 in 7.0 mi East 13.8 mph - 0.00 in   Overcast
6:53 AM 69.1 °F 66.9 °F 93% 30.17 in 2.0 mi ENE 10.4 mph 17.3 mph 0.02 in Rain Light Rain
7:01 AM 69.8 °F 66.2 °F 88% 30.16 in 1.5 mi ENE 12.7 mph 18.4 mph 0.01 in Rain Light Rain
7:36 AM 69.8 °F 68.0 °F 94% 30.16 in 2.0 mi NE 9.2 mph 17.3 mph 0.04 in Rain Light Rain
7:53 AM 69.1 °F 68.0 °F 96% 30.17 in 2.5 mi NE 8.1 mph - 0.04 in Rain Light Rain
8:17 AM 69.8 °F 68.0 °F 94% 30.16 in 1.5 mi NE 11.5 mph 17.3 mph 0.02 in Rain Light Rain
8:32 AM 69.8 °F 68.0 °F 94% 30.16 in 2.0 mi NE 11.5 mph 18.4 mph 0.03 in Rain Light Rain
8:53 AM 69.1 °F 68.0 °F 96% 30.16 in 5.0 mi NE 10.4 mph - 0.03 in   Overcast
9:25 AM 69.8 °F 68.0 °F 94% 30.16 in 3.0 mi NNE 11.5 mph - 0.00 in Rain Light Rain
9:29 AM 69.8 °F 68.0 °F 94% 30.16 in 1.8 mi NNE 12.7 mph - 0.01 in Rain Light Rain
9:51 AM 69.8 °F 68.0 °F 94% 30.16 in 2.5 mi NE 10.4 mph 19.6 mph 0.03 in Rain Light Rain
9:53 AM 70.0 °F 68.0 °F 93% 30.16 in 2.0 mi NE 9.2 mph 18.4 mph 0.03 in Rain Light Rain
9:58 AM 69.8 °F 68.0 °F 94% 30.16 in 1.5 mi NE 9.2 mph - 0.01 in Rain Light Rain
10:15 AM 69.8 °F 69.8 °F 100% 30.16 in 3.0 mi ENE 12.7 mph 21.9 mph 0.02 in   Overcast
10:26 AM 69.8 °F 69.8 °F 100% 30.16 in 2.0 mi NE 12.7 mph - 0.02 in   Overcast
10:41 AM 69.8 °F 68.0 °F 94% 30.16 in 4.0 mi ENE 15.0 mph 25.3 mph 0.02 in   Overcast
10:51 AM 69.8 °F 68.0 °F 94% 30.16 in 1.8 mi ENE 13.8 mph 19.6 mph 0.02 in Rain Light Rain
10:52 AM 69.1 °F 68.0 °F 96% 30.17 in 1.8 mi ENE 11.5 mph 19.6 mph 0.03 in Rain Light Rain
11:01 AM 69.8 °F 68.0 °F 94% 30.16 in 2.0 mi NE 11.5 mph 19.6 mph 0.00 in Rain Light Rain
11:09 AM 69.8 °F 68.0 °F 94% 30.17 in 2.0 mi NE 8.1 mph - 0.01 in Rain Light Rain
11:20 AM 69.8 °F 68.0 °F 94% 30.16 in 1.5 mi NE 10.4 mph 23.0 mph 0.04 in Rain Rain
11:43 AM 69.8 °F 68.0 °F 94% 30.16 in 2.0 mi NE 15.0 mph 21.9 mph 0.09 in Rain Light Rain
11:53 AM 70.0 °F 68.0 °F 93% 30.16 in 2.5 mi NE 10.4 mph 21.9 mph 0.10 in Rain Light Rain
11:59 AM 69.8 °F 68.0 °F 94% 30.16 in 3.0 mi NE 9.2 mph 17.3 mph 0.00 in Rain Light Rain
12:17 PM 69.8 °F 66.2 °F 88% 30.15 in 5.0 mi NE 13.8 mph 23.0 mph 0.00 in   Overcast
12:40 PM 69.8 °F 66.2 °F 88% 30.15 in 4.0 mi NE 15.0 mph 23.0 mph 0.00 in Rain Light Rain
12:53 PM 69.1 °F 66.9 °F 93% 30.15 in 4.0 mi NE 11.5 mph 20.7 mph 0.00 in Rain Light Rain
1:12 PM 69.8 °F 66.2 °F 88% 30.15 in 3.0 mi NE 10.4 mph 19.6 mph 0.00 in   Overcast
1:20 PM 69.8 °F 68.0 °F 94% 30.15 in 2.5 mi NE 10.4 mph 18.4 mph 0.00 in   Overcast
1:28 PM 69.8 °F 66.2 °F 88% 30.14 in 3.0 mi NE 13.8 mph 21.9 mph 0.00 in   Overcast
1:34 PM 69.8 °F 66.2 °F 88% 30.14 in 4.0 mi NE 13.8 mph 21.9 mph 0.00 in   Overcast
1:53 PM 69.1 °F 66.9 °F 93% 30.14 in 3.0 mi NE 16.1 mph 21.9 mph 0.00 in   Overcast
2:00 PM 69.8 °F 66.2 °F 88% 30.14 in 2.0 mi NE 16.1 mph 21.9 mph N/A   Overcast
2:07 PM 69.8 °F 66.2 °F 88% 30.14 in 2.5 mi NE 11.5 mph 21.9 mph N/A   Overcast
2:10 PM 69.8 °F 66.2 °F 88% 30.14 in 3.0 mi NNE 12.7 mph 19.6 mph N/A   Overcast
2:20 PM 69.8 °F 66.2 °F 88% 30.14 in 4.0 mi NNE 9.2 mph 19.6 mph N/A   Overcast
2:27 PM 69.8 °F 66.2 °F 88% 30.14 in 4.0 mi NNE 10.4 mph - N/A   Overcast
2:53 PM 68.0 °F 66.0 °F 93% 30.14 in 4.0 mi NE 8.1 mph 19.6 mph 0.00 in Rain Light Rain
3:18 PM 68.0 °F 66.2 °F 94% 30.13 in 9.0 mi NE 13.8 mph 21.9 mph 0.00 in   Overcast
3:53 PM 68.0 °F 63.0 °F 84% 30.13 in 10.0 mi NE 10.4 mph 20.7 mph 0.00 in   Overcast
4:53 PM 69.1 °F 62.1 °F 78% 30.13 in 9.0 mi NE 10.4 mph - N/A   Overcast
5:49 PM 66.2 °F 64.4 °F 94% 30.16 in 2.0 mi North 3.5 mph - 0.03 in Rain Light Rain
5:53 PM 66.0 °F 64.0 °F 93% 30.15 in 2.0 mi Variable 3.5 mph - 0.03 in Rain Light Rain
6:04 PM 66.2 °F 62.6 °F 88% 30.15 in 6.0 mi NNE 5.8 mph - 0.00 in Rain Light Rain
6:53 PM 66.9 °F 64.0 °F 90% 30.15 in 10.0 mi NNW 4.6 mph - 0.00 in   Overcast
7:53 PM 66.0 °F 64.0 °F 93% 30.16 in 10.0 mi WNW 5.8 mph - N/A   Overcast
8:53 PM 64.9 °F 64.0 °F 97% 30.17 in 9.0 mi WNW 3.5 mph - 0.00 in   Overcast
9:53 PM 64.9 °F 64.0 °F 97% 30.18 in 7.0 mi West 3.5 mph - N/A   Overcast
10:53 PM 64.9 °F 64.0 °F 97% 30.19 in 9.0 mi West 4.6 mph - N/A   Overcast
11:53 PM 64.9 °F 64.0 °F 97% 30.17 in 9.0 mi WNW 4.6 mph - N/A   Overcast